This is the latest recevied weather packets stored in our database for station/object KD2SIG. If no packets are shown the sender has not sent any weather packets the latest 10 day(s).
| Time | Temp. | Humidity | Pressure | Rain* | Wind** | Luminosity | Snow |
|---|---|---|---|---|---|---|---|
| 1787845306 | 22.22° C | 82% | 1013.3 hPa | 0 mm | - | 29 W/m² | - |
| 1787845002 | 22.22° C | 82% | 1013.4 hPa | 0 mm | - | 72 W/m² | - |
| 1787844697 | 22.22° C | 82% | 1013.2 hPa | 0 mm | - | 50 W/m² | - |
| 1787844391 | 22.22° C | 81% | 1013.1 hPa | 0 mm | - | 77 W/m² | - |
| 1787844090 | 22.78° C | 80% | 1012.9 hPa | 0 mm | - | 55 W/m² | - |
| 1787843785 | 23.33° C | 78% | 1012.9 hPa | 0 mm | - | 39 W/m² | - |
| 1787843481 | 23.33° C | 78% | 1012.8 hPa | 0 mm | - | 88 W/m² | - |
| 1787843178 | 23.89° C | 77% | 1012.9 hPa | 0 mm | - | 178 W/m² | - |
| 1787842878 | 23.89° C | 77% | 1012.9 hPa | 0 mm | - | 242 W/m² | - |
| 1787842578 | 24.44° C | 76% | 1013 hPa | 0 mm | - | 232 W/m² | - |
| 1787842272 | 24.44° C | 76% | 1013 hPa | 0 mm | - | 339 W/m² | - |
| 1787841972 | 24.44° C | 75% | 1012.9 hPa | 0 mm | - | 722 W/m² | - |
| 1787841668 | 24.44° C | 76% | 1013 hPa | 0 mm | - | 756 W/m² | - |
| 1787841367 | 24.44° C | 77% | 1012.8 hPa | 0 mm | - | 322 W/m² | - |
| 1787841062 | 23.33° C | 79% | 1013.1 hPa | 0 mm | - | 717 W/m² | - |
| 1787840757 | 22.78° C | 80% | 1012.9 hPa | 0 mm | - | 247 W/m² | - |
| 1787840454 | 22.78° C | 80% | 1013 hPa | 0 mm | - | 215 W/m² | - |
| 1787840152 | 22.78° C | 80% | 1012.8 hPa | 0 mm | - | 158 W/m² | - |
| 1787839847 | 23.33° C | 80% | 1012.8 hPa | 0 mm | - | 149 W/m² | - |
| 1787839542 | 23.33° C | 78% | 1013 hPa | 0 mm | - | 240 W/m² | - |
| 1787839242 | 23.33° C | 79% | 1012.8 hPa | 1.78 mm | - | 625 W/m² | - |
| 1787838942 | 23.33° C | 79% | 1012.8 hPa | 1.78 mm | - | 278 W/m² | - |
| 1787838636 | 23.33° C | 80% | 1013 hPa | 0 mm | - | 591 W/m² | - |
| 1787838335 | 22.78° C | 82% | 1013.1 hPa | 0 mm | - | 587 W/m² | - |
| 1787838034 | 21.67° C | 84% | 1013 hPa | 0 mm | - | 340 W/m² | - |
* Rain latest hour (hover to see other rain measurements)
** Current wind speed in m/s (hover to see current wind gust speed)